Weather History for Newark Heath, OH

Change the Weather History Date:

Monday, September 16, 2013

  Actual Average Record
Temperature  
Mean Temperature 61 °F -  
Max Temperature 73 °F 75 °F 98 °F (1939)
Min Temperature 51 °F 53 °F 35 °F (2007)
Degree Days  
Heating Degree Days 4    
Growing Degree Days 11 (Base 50)    
Moisture  
Dew Point 54 °F    
Average Humidity 83    
Maximum Humidity 100    
Minimum Humidity 49    
Precipitation  
Precipitation 0.01 in - - ()
Sea Level Pressure  
Sea Level Pressure 30.20 in    
Wind  
Wind Speed 2 mph (NNE)    
Max Wind Speed 8 mph    
Max Gust Speed -    
Visibility 6 miles    
Events Fog , Rain    
Averages and records for this station are not official NWS values.
T = Trace of Precipitation, MM = Missing Value Source: NWS Daily Summary

Daily Weather History Graph

Daily Weather History Graph

Search for Another Location

Airport:

Trip Planner

Search our weather history database for the weather conditions in past years. The results will help you decide how hot, cold, wet, or windy it might be!

Date:

Astronomy

Sep. 16, 2013 Rise Set
Actual Time 7:11 AM EDT 7:36 PM EDT
Civil Twilight 6:44 AM EDT 8:03 PM EDT
Nautical Twilight 6:12 AM EDT 8:35 PM EDT
Astronomical Twilight 5:40 AM EDT 9:08 PM EDT
Moon 5:44 PM EDT (9/16) 3:56 AM EDT (9/16)
Length of Visible Light 13h 18m
Length of Day
12h 24m
Waxing Gibbous, 90% of the Moon is Illuminated
Sep 16
Waxing Gibbous
Sep 19
Full
Sep 26
Last Quarter
Oct 4
New
Oct 11
First Quarter

Hourly Weather History & Observations

Time (EDT) Temp. Dew Point Humidity Pressure Visibility Wind Dir Wind Speed Gust Speed Precip Events Conditions
12:54 AM 61.0 °F 57.9 °F 90% 30.11 in 10.0 mi NNW 3.5 mph - N/A Rain Light Rain
1:54 AM 59.0 °F 55.9 °F 90% 30.12 in 5.0 mi North 3.5 mph - N/A Rain Rain
2:54 AM 59.0 °F 57.0 °F 93% 30.11 in 10.0 mi Calm Calm - N/A   Overcast
3:54 AM 57.9 °F 57.0 °F 97% 30.11 in 6.0 mi Calm Calm - N/A Rain Light Rain
4:54 AM 57.9 °F 55.9 °F 93% 30.12 in 10.0 mi Calm Calm - N/A   Overcast
5:16 AM 55.4 °F 55.4 °F 100% 30.13 in 1.8 mi Calm Calm - N/A   Partly Cloudy
5:31 AM 55.4 °F 55.4 °F 100% 30.14 in 3.0 mi Calm Calm - N/A   Clear
5:46 AM 55.4 °F 53.6 °F 94% 30.14 in 1.8 mi Calm Calm - N/A   Clear
5:50 AM 55.4 °F 53.6 °F 94% 30.15 in 0.8 mi Calm Calm - N/A   Mist
5:54 AM 55.0 °F 54.0 °F 96% 30.14 in 0.8 mi Calm Calm - N/A   Mist
5:59 AM 55.4 °F 53.6 °F 94% 30.15 in 1.2 mi Calm Calm - N/A   Scattered Clouds
6:04 AM 55.4 °F 53.6 °F 94% 30.15 in 3.0 mi Calm Calm - N/A   Partly Cloudy
6:19 AM 55.4 °F 53.6 °F 94% 30.15 in 1.5 mi Calm Calm - N/A   Partly Cloudy
6:22 AM 53.6 °F 53.6 °F 100% 30.15 in 0.8 mi Calm Calm - N/A   Mist
6:33 AM 55.4 °F 53.6 °F 94% 30.16 in 0.2 mi Calm Calm - N/A Fog Fog
6:54 AM 54.0 °F 52.0 °F 93% 30.15 in 0.2 mi Calm Calm - N/A Fog Fog
7:31 AM 51.8 °F 51.8 °F 100% 30.18 in 0.2 mi Calm Calm - N/A Fog Fog
7:41 AM 53.6 °F 51.8 °F 94% 30.18 in 0.5 mi Calm Calm - N/A Fog Fog
7:54 AM 54.0 °F 52.0 °F 93% 30.18 in 1.0 mi Calm Calm - N/A   Mostly Cloudy
8:00 AM 53.6 °F 53.6 °F 100% 30.19 in 3.0 mi Calm Calm - N/A   Scattered Clouds
8:54 AM 57.9 °F 55.9 °F 93% 30.19 in 7.0 mi Calm Calm - N/A   Mostly Cloudy
9:16 AM 60.8 °F 57.2 °F 88% 30.21 in 9.0 mi North 6.9 mph - N/A   Overcast
9:54 AM 61.0 °F 57.0 °F 87% 30.22 in 10.0 mi North 4.6 mph - N/A   Overcast
10:17 AM 60.8 °F 55.4 °F 82% 30.23 in 10.0 mi NNE 4.6 mph - N/A   Overcast
10:54 AM 62.1 °F 55.9 °F 80% 30.23 in 10.0 mi North 4.6 mph - N/A   Overcast
11:19 AM 62.6 °F 57.2 °F 82% 30.25 in 10.0 mi Variable 4.6 mph - N/A   Overcast
11:40 AM 64.4 °F 55.4 °F 73% 30.25 in 10.0 mi Variable 4.6 mph - N/A   Overcast
11:54 AM 64.0 °F 55.0 °F 73% 30.25 in 10.0 mi NE 5.8 mph - N/A   Overcast
12:54 PM 64.9 °F 55.0 °F 70% 30.26 in 10.0 mi NNE 4.6 mph - N/A   Overcast
1:54 PM 66.0 °F 55.0 °F 68% 30.25 in 10.0 mi NE 3.5 mph - 0.01 in   Overcast
2:54 PM 69.1 °F 54.0 °F 58% 30.24 in 10.0 mi Variable 3.5 mph - N/A   Scattered Clouds
3:54 PM 71.1 °F 52.0 °F 51% 30.22 in 10.0 mi NW 8.1 mph - N/A   Clear
4:54 PM 71.1 °F 51.1 °F 49% 30.22 in 10.0 mi NNW 6.9 mph - N/A   Scattered Clouds
5:54 PM 69.1 °F 48.9 °F 49% 30.22 in 10.0 mi North 4.6 mph - N/A   Mostly Cloudy
6:54 PM 68.0 °F 51.1 °F 55% 30.24 in 10.0 mi NE 5.8 mph - N/A   Mostly Cloudy
7:54 PM 63.0 °F 51.1 °F 65% 30.25 in 10.0 mi North 5.8 mph - N/A   Clear
8:54 PM 61.0 °F 51.1 °F 70% 30.28 in 10.0 mi NNE 4.6 mph - N/A   Clear
9:54 PM 57.9 °F 50.0 °F 75% 30.30 in 10.0 mi NNE 4.6 mph - N/A   Clear
10:54 PM 55.9 °F 50.0 °F 80% 30.31 in 10.0 mi Variable 4.6 mph - N/A   Clear
11:54 PM 54.0 °F 48.9 °F 83% 30.32 in 10.0 mi Calm Calm - N/A   Clear